Carrollton, GA

11:14 AM EST on February 25, 2017 (GMT -0500)
West Georgia Regional-Gray

Weather History for KCTJ - May, 2013

Change the Weather History Date:

Saturday, May 4, 2013

  Actual Average Record
Temperature  
Mean Temperature 53 °F -  
Max Temperature 60 °F 76 °F 90 °F (1952)
Min Temperature 46 °F 50 °F 33 °F (1971)
Degree Days  
Heating Degree Days 12    
Growing Degree Days 3 (Base 50)    
Moisture  
Dew Point 51 °F    
Average Humidity 95    
Maximum Humidity 100    
Minimum Humidity 82    
Precipitation  
Precipitation 0.00 in - - ()
Sea Level Pressure  
Sea Level Pressure 29.90 in    
Wind  
Wind Speed 8 mph (ENE)    
Max Wind Speed 15 mph    
Max Gust Speed 24 mph    
Visibility 7 miles    
Events Rain , Thunderstorm    
Averages and records for this station are not official NWS values.
T = Trace of Precipitation, MM = Missing Value Source: NWS Daily Summary

Daily Weather History Graph

Daily Weather History Graph

Search for Another Location

Airport or City:

Trip Planner

Search our weather history database for the weather conditions in past years. The results will help you decide how hot, cold, wet, or windy it might be!

Date:

Astronomy

May. 04, 2013 Rise Set
Actual Time 6:48 AM EDT 8:26 PM EDT
Civil Twilight 6:22 AM EDT 8:53 PM EDT
Nautical Twilight 5:50 AM EDT 9:25 PM EDT
Astronomical Twilight 5:16 AM EDT 9:59 PM EDT
Moon 3:31 AM EDT (5/4) 3:37 PM EDT (5/4)
Length of Visible Light 14h 30m
Length of Day
13h 37m
Waning Crescent, 27% of the Moon is Illuminated
May 4
Waning Crescent
May 9
New
May 18
First Quarter
May 25
Full
May 31
Last Quarter

Hourly Weather History & Observations

Time (EDT) Temp. Windchill Dew Point Humidity Pressure Visibility Wind Dir Wind Speed Gust Speed Precip Events Conditions
12:15 AM 60.8 °F - 55.4 °F 82% 29.92 in 10.0 mi ESE 9.2 mph 19.6 mph N/A   Drizzle
12:35 AM 60.8 °F - 55.4 °F 82% 29.92 in 10.0 mi ESE 9.2 mph 17.3 mph N/A   Overcast
12:55 AM 60.8 °F - 55.4 °F 82% 29.92 in 10.0 mi ESE 12.7 mph 24.2 mph N/A   Overcast
1:15 AM 59.0 °F - 55.4 °F 88% 29.91 in 7.0 mi ESE 9.2 mph 18.4 mph N/A Rain Light Rain
1:35 AM 59.0 °F - 55.4 °F 88% 29.91 in 10.0 mi ESE 11.5 mph 20.7 mph N/A   Drizzle
1:55 AM 59.0 °F - 55.4 °F 88% 29.91 in 10.0 mi ESE 9.2 mph 19.6 mph N/A Rain Light Rain
2:15 AM 59.0 °F - 55.4 °F 88% 29.91 in 7.0 mi ESE 5.8 mph 16.1 mph N/A Rain Light Rain
2:35 AM 57.2 °F - 55.4 °F 94% 29.91 in 7.0 mi East 9.2 mph - N/A Rain Light Rain
2:55 AM 55.4 °F - 53.6 °F 94% 29.90 in 7.0 mi East 11.5 mph 18.4 mph N/A Rain Light Rain
3:15 AM 55.4 °F - 53.6 °F 94% 29.89 in 10.0 mi ESE 10.4 mph 19.6 mph N/A Rain Light Rain
3:35 AM 55.4 °F - 53.6 °F 94% 29.89 in 7.0 mi ESE 10.4 mph - N/A   Drizzle
3:55 AM 55.4 °F - 53.6 °F 94% 29.90 in 10.0 mi ESE 12.7 mph 18.4 mph N/A   Light Drizzle
4:15 AM 55.4 °F - 53.6 °F 94% 29.90 in 10.0 mi ESE 11.5 mph 18.4 mph N/A Rain Heavy Rain
4:35 AM 53.6 °F - 53.6 °F 100% 29.90 in 7.0 mi SE 15.0 mph 19.6 mph N/A Rain Light Rain
4:55 AM 53.6 °F - 53.6 °F 100% 29.90 in 10.0 mi ESE 10.4 mph 17.3 mph N/A   Overcast
5:15 AM 53.6 °F - 51.8 °F 94% 29.89 in 10.0 mi ESE 8.1 mph - N/A   Overcast
5:35 AM 53.6 °F - 51.8 °F 94% 29.91 in 10.0 mi South 3.5 mph - N/A Rain Light Rain
5:55 AM 53.6 °F - 51.8 °F 94% 29.91 in 7.0 mi SSE 6.9 mph - N/A Rain Rain
6:15 AM 53.6 °F - 53.6 °F 100% 29.90 in 5.0 mi ESE 4.6 mph - N/A Rain Rain
6:35 AM 53.6 °F - 53.6 °F 100% 29.90 in 5.0 mi SE 6.9 mph - N/A   Heavy Drizzle
6:55 AM 53.6 °F - 53.6 °F 100% 29.89 in 7.0 mi East 4.6 mph - N/A   Drizzle
7:15 AM 53.6 °F - 53.6 °F 100% 29.89 in 5.0 mi East 9.2 mph 16.1 mph N/A   Heavy Drizzle
7:35 AM 53.6 °F - 53.6 °F 100% 29.88 in 4.0 mi ESE 10.4 mph 17.3 mph N/A Rain Light Rain
7:55 AM 53.6 °F - 53.6 °F 100% 29.87 in 5.0 mi East 11.5 mph 18.4 mph N/A Rain Light Rain
8:15 AM 53.6 °F - 53.6 °F 100% 29.87 in 5.0 mi ESE 11.5 mph 17.3 mph N/A   Drizzle
8:35 AM 53.6 °F - 51.8 °F 94% 29.90 in 10.0 mi East 11.5 mph 18.4 mph N/A   Drizzle
8:55 AM 51.8 °F - 50.0 °F 94% 29.88 in 5.0 mi East 15.0 mph 20.7 mph N/A Rain Rain
9:15 AM 51.8 °F - 50.0 °F 94% 29.89 in 10.0 mi East 11.5 mph 17.3 mph N/A Rain Light Rain
9:35 AM 51.8 °F - 50.0 °F 94% 29.90 in 7.0 mi ESE 9.2 mph 20.7 mph N/A Rain Light Rain
10:15 AM 51.8 °F - 50.0 °F 94% 29.90 in 5.0 mi East 9.2 mph - N/A Rain Rain
10:35 AM 51.8 °F - 50.0 °F 94% 29.89 in 7.0 mi ESE 9.2 mph - N/A Rain Light Rain
10:55 AM 51.8 °F - 50.0 °F 94% 29.90 in 5.0 mi ESE 3.5 mph - N/A Rain Rain
11:15 AM 51.8 °F - 50.0 °F 94% 29.89 in 5.0 mi ESE 4.6 mph - N/A Rain Rain
11:35 AM 51.8 °F - 50.0 °F 94% 29.89 in 5.0 mi ESE 3.5 mph - N/A   Heavy Drizzle
11:55 AM 51.8 °F - 50.0 °F 94% 29.93 in 3.0 mi Calm Calm - N/A Rain Heavy Rain
12:15 PM 51.8 °F - 51.8 °F 100% 29.93 in 2.5 mi West 3.5 mph - N/A Rain Rain
12:35 PM 51.8 °F - 51.8 °F 100% 29.92 in 5.0 mi NW 3.5 mph - N/A Rain Light Rain
12:55 PM 51.8 °F - 51.8 °F 100% 29.94 in 4.0 mi WNW 4.6 mph - N/A Rain Rain
1:15 PM 51.8 °F - 51.8 °F 100% 29.94 in 4.0 mi West 3.5 mph - N/A Rain Rain
1:35 PM 51.8 °F - 51.8 °F 100% 29.93 in 5.0 mi NW 4.6 mph - N/A Rain , Thunderstorm Rain
1:55 PM 51.8 °F - 51.8 °F 100% 29.91 in 4.0 mi NE 8.1 mph - N/A Rain , Thunderstorm Rain
2:15 PM 51.8 °F - 51.8 °F 100% 29.90 in 7.0 mi ENE 8.1 mph - N/A Rain Light Rain
2:35 PM 51.8 °F - 51.8 °F 100% 29.89 in 10.0 mi ENE 6.9 mph - N/A Rain Light Rain
2:55 PM 53.6 °F - 51.8 °F 94% 29.89 in 7.0 mi NE 3.5 mph - N/A Rain Light Rain
3:15 PM 53.6 °F - 51.8 °F 94% 29.88 in 7.0 mi ENE 6.9 mph - N/A Rain Rain
3:35 PM 53.6 °F - 53.6 °F 100% 29.87 in 7.0 mi Calm Calm - N/A Rain Light Rain
3:55 PM 53.6 °F - 51.8 °F 94% 29.87 in 10.0 mi East 3.5 mph - N/A Rain Light Rain
4:15 PM 55.4 °F - 51.8 °F 88% 29.88 in 10.0 mi North 3.5 mph - N/A Rain Rain
4:35 PM 55.4 °F - 53.6 °F 94% 29.88 in 10.0 mi NE 3.5 mph - N/A Rain Light Rain
4:55 PM 55.4 °F - 53.6 °F 94% 29.87 in 10.0 mi Calm Calm - N/A Rain Rain
5:15 PM 55.4 °F - 53.6 °F 94% 29.87 in 10.0 mi Calm Calm - N/A   Drizzle
5:35 PM 55.4 °F - 53.6 °F 94% 29.87 in 7.0 mi Calm Calm - N/A Rain Rain
5:55 PM 55.4 °F - 53.6 °F 94% 29.87 in 4.0 mi North 3.5 mph - N/A Rain Heavy Rain
6:15 PM 53.6 °F - 51.8 °F 94% 29.88 in 4.0 mi WNW 6.9 mph - N/A Rain Heavy Rain
6:35 PM 50.0 °F - 50.0 °F 100% 29.88 in 3.0 mi NW 6.9 mph - N/A Rain Rain
6:55 PM 50.0 °F - 48.2 °F 94% 29.88 in 5.0 mi NW 8.1 mph - N/A   Heavy Drizzle
7:15 PM 48.2 °F - 46.4 °F 93% 29.89 in 3.0 mi NW 9.2 mph - N/A Rain Rain
7:35 PM 48.2 °F - 46.4 °F 93% 29.89 in 2.5 mi NW 8.1 mph - N/A   Heavy Drizzle
7:55 PM 48.2 °F - 46.4 °F 93% 29.88 in 5.0 mi NW 6.9 mph - N/A Rain Heavy Rain
8:15 PM 48.2 °F - 46.4 °F 93% 29.89 in 5.0 mi NNW 8.1 mph - N/A   Drizzle
8:35 PM 48.2 °F - 46.4 °F 93% 29.88 in 5.0 mi NW 6.9 mph - N/A   Drizzle
8:55 PM 48.2 °F - 46.4 °F 93% 29.89 in 10.0 mi NNW 5.8 mph - N/A   Light Drizzle
9:15 PM 48.2 °F - 46.4 °F 93% 29.90 in 10.0 mi NW 8.1 mph - N/A   Overcast
9:35 PM 48.2 °F - 46.4 °F 93% 29.90 in 5.0 mi NW 9.2 mph - N/A   Heavy Drizzle
9:55 PM 48.2 °F - 46.4 °F 93% 29.90 in 5.0 mi NW 5.8 mph - N/A   Drizzle
10:15 PM 48.2 °F - 46.4 °F 93% 29.90 in 4.0 mi NNW 8.1 mph - N/A   Drizzle
10:35 PM 48.2 °F - 46.4 °F 93% 29.90 in 5.0 mi NW 6.9 mph - N/A   Drizzle
10:55 PM 48.2 °F - 46.4 °F 93% 29.90 in 10.0 mi NNW 5.8 mph - N/A   Overcast
11:15 PM 46.4 °F 42.9 °F 46.4 °F 100% 29.89 in 7.0 mi NW 6.9 mph - N/A   Overcast
11:35 PM 46.4 °F 41.9 °F 46.4 °F 100% 29.89 in 7.0 mi NW 9.2 mph - N/A   Overcast
11:55 PM 46.4 °F 42.9 °F 46.4 °F 100% 29.89 in 5.0 mi NW 6.9 mph - N/A   Overcast